Location: Ch�tillon
(48.8024°N, 2.2935°E)
Time: 04:11:28
(UTC+00:00)

Cosmos 2278 Rocket - Pass Details

Date: 16 October 2021
Orbit: 841 x 845 km, 71.0° (Epoch: 29 November)

Event Time Altitude Azimuth Distance (km) Brightness Sun altitude
Rises 19:40:09 0° 335° (NNW) 3,417 5.9 -27.0°
Reaches altitude 10° 19:43:36 10° 356° (N) 2,479 4.9 -27.6°
Enters shadow 19:46:12 16° 23° (NNE) 2,078 4.2 -28.0°
